Weather in Glendale

United States     33°32′16″N   112°17′22″W
temp.,
°C
wind,
m/s
gust,
m/s
humid.,
%
clouds,
%
prec.,
mm/h
press.,
hPa
HPBL,
m
16 may, sun
sun1623:00+25sw610140 0.0 1007466
02:00+23sw46200 0.0 1008417
05:00+22sw58290 0.0 1009498
08:00+23sw54270 0.0 1011806
11:00+26wsw22150 0.0 10111442
14:00+31sw48140 0.0 10073194
17:00+31wsw89120 0.0 10053281
20:00+27w79150 0.0 10061207
17 may, mon
mon1723:00+24ssw69191 0.0 1008474
02:00+21sw57335 0.0 1008392
05:00+20sw22351 0.0 1009379
08:00+22wsw21320 0.0 1011729
11:00+25wsw22262 0.0 10111408
14:00+29nw23190 0.0 10082443
17:00+31w55150 0.0 10063006
20:00+29sw67180 0.0 10061182
18 may, tue
tue1823:00+26sw6112214 0.0 1008406
02:00+23wsw5102741 0.0 1008425
05:00+22sw473250 0.0 1009404
08:00+24sw353158 0.0 1010546
11:00+28sw34270 0.1 10091250
14:00+32w45210 0.0 10062634
17:00+34sw67175 0.0 10043337
20:00+31sw69200 0.0 1004869
19 may, wed
wed1923:00+27sw613280 0.0 1006503
02:00+25w24320 0.0 1006316
05:00+24sw22320 0.0 1008191
08:00+27s23260 0.0 1009559
11:00+31s241813 0.0 10081584
14:00+36wsw67130 0.0 10043355
17:00+36sw89120 0.0 10023361
20:00+31sw810170 0.0 1004971
20 may, thu
thu2023:00+27sw510240 0.0 1006499
02:00+25wsw382825 0.0 1006496
05:00+25ssw232855 0.0 1006229
08:00+27sse2224100 0.0 1007734
11:00+31sw451671 0.0 10061845
14:00+35sw89110 0.0 10033546
17:00+34ssw78110 0.0 10023211
20:00+31sw810170 0.0 10021196